Lake Charles Regional, LA

3:17 AM CDT on August 26, 2019 (GMT -0500)
Lake Charles Regional

Weather History for KLCH - July, 2019

Change the Weather History Date:

Sunday, July 21, 2019

  Actual Average Record
Temperature  
Mean Temperature 83 °F 83 °F  
Max Temperature 90 °F 91 °F 99 °F (1937)
Min Temperature 75 °F 75 °F 66 °F (1913)
Degree Days  
Heating Degree Days 0 0  
Month to date heating degree days 0 0  
Since 1 June heating degree days 0 0  
Since 1 July heating degree days 0 0  
Cooling Degree Days 18 18  
Month to date cooling degree days 415 375  
Year to date cooling degree days 1585 1393  
Since 1 June cooling degree days 942 855  
Growing Degree Days 32 (Base 50)    
Moisture  
Dew Point 74 °F    
Average Humidity 75    
Maximum Humidity 91    
Minimum Humidity 59    
Precipitation  
Precipitation 0.04 in 0.16 in 4.50 in (1917)
Month to date precipitation 3.15 3.91  
Year to date precipitation 41.23 31.64  
Snow  
Snow 0.00 in 0.00 in 0.00 in ()
Month to date snowfall 0.0 0.0  
Since 1 June snowfall 0.0 0.0  
Since 1 July snowfall 0.0 0.0  
Snow Depth 0.00 in    
Sea Level Pressure  
Sea Level Pressure 30.00 in    
Wind  
Wind Speed 5 mph (SSE)    
Max Wind Speed 16 mph    
Max Gust Speed 20 mph    
Visibility 10 miles    
Events Rain , Thunderstorm    
T = Trace of Precipitation, MM = Missing Value Source: NWS Daily Summary

Daily Weather History Graph

Daily Weather History Graph

Search for Another Location

Airport or City:

Astronomy

Jul. 21, 2019 Rise Set
Actual Time 6:25 AM CDT 8:13 PM CDT
Civil Twilight 5:58 AM CDT 8:39 PM CDT
Nautical Twilight 5:26 AM CDT 9:11 PM CDT
Astronomical Twilight 4:52 AM CDT 9:45 PM CDT
Moon 11:25 PM CDT (7/21) 10:31 AM CDT (7/21)
Length of Visible Light 14h 41m
Length of Day
13h 48m
Waning Gibbous, 80% of the Moon is Illuminated
Jul 21
Waning Gibbous
Jul 24
Last Quarter
Jul 31
New
Aug 7
First Quarter
Aug 15
Full

Hourly Weather History & Observations

Time (CDT) Temp. Heat Index Dew Point Humidity Pressure Visibility Wind Dir Wind Speed Gust Speed Precip Events Conditions
12:53 AM 81.0 °F 87.3 °F 75.9 °F 85% 29.99 in 10.0 mi Calm Calm - N/A   Partly Cloudy
1:53 AM 81.0 °F 87.9 °F 77.0 °F 88% 29.99 in 10.0 mi SSE 4.6 mph - N/A   Partly Cloudy
2:53 AM 80.1 °F 85.8 °F 77.0 °F 90% 29.98 in 10.0 mi SSE 4.6 mph - N/A   Clear
3:53 AM 81.0 °F 87.9 °F 77.0 °F 88% 29.99 in 10.0 mi ENE 3.5 mph - N/A   Partly Cloudy
4:53 AM 80.1 °F 85.8 °F 77.0 °F 90% 29.99 in 10.0 mi Calm Calm - N/A   Clear
5:13 AM 80.1 °F 85.8 °F 77.0 °F 90% 29.97 in 10.0 mi ENE 3.5 mph - N/A Thunderstorm Clear
5:44 AM 80.1 °F 85.8 °F 77.0 °F 90% 29.98 in 10.0 mi West 3.5 mph - N/A   Partly Cloudy
5:53 AM 80.1 °F 85.8 °F 77.0 °F 90% 30.00 in 10.0 mi Calm Calm - N/A   Mostly Cloudy
6:27 AM 78.1 °F - 72.0 °F 81% 29.98 in 8.0 mi ENE 8.1 mph - 0.00 in Rain Light Rain
6:53 AM 77.0 °F - 72.0 °F 84% 30.01 in 10.0 mi East 6.9 mph - 0.01 in Thunderstorm Overcast
7:00 AM 77.0 °F - 73.0 °F 88% 29.99 in 10.0 mi SW 8.1 mph - N/A Thunderstorm Overcast
7:21 AM 77.0 °F - 73.0 °F 88% 30.00 in 10.0 mi WNW 5.8 mph - 0.00 in Rain , Thunderstorm Light Rain
7:30 AM 75.9 °F - 72.0 °F 87% 30.00 in 10.0 mi West 4.6 mph - 0.00 in   Overcast
7:53 AM 75.9 °F - 71.1 °F 85% 30.02 in 10.0 mi WNW 8.1 mph - 0.00 in   Mostly Cloudy
8:53 AM 80.1 °F 83.8 °F 72.0 °F 76% 30.03 in 10.0 mi Calm Calm - N/A   Mostly Cloudy
9:53 AM 84.9 °F 91.4 °F 73.0 °F 67% 30.03 in 10.0 mi Calm Calm - N/A   Clear
10:53 AM 86.0 °F 93.0 °F 73.0 °F 65% 30.03 in 10.0 mi SSW 4.6 mph - N/A   Clear
11:53 AM 89.1 °F 98.0 °F 73.9 °F 61% 30.03 in 10.0 mi WSW 4.6 mph - N/A   Clear
12:44 PM 79.0 °F - 73.0 °F 82% 30.03 in 10.0 mi SSE 11.5 mph - 0.00 in Rain Light Rain
12:53 PM 78.1 °F - 73.9 °F 87% 30.06 in 8.0 mi SSE 13.8 mph - 0.00 in Rain Light Rain
1:53 PM 82.0 °F 90.2 °F 77.0 °F 85% 30.03 in 10.0 mi South 6.9 mph - 0.03 in   Mostly Cloudy
2:53 PM 84.0 °F 91.9 °F 75.0 °F 74% 30.01 in 10.0 mi SW 6.9 mph - N/A   Partly Cloudy
3:53 PM 86.0 °F 93.8 °F 73.9 °F 67% 29.99 in 10.0 mi West 6.9 mph - N/A   Clear
4:53 PM 86.0 °F 92.2 °F 72.0 °F 63% 30.00 in 10.0 mi NNW 5.8 mph - N/A   Clear
5:53 PM 86.0 °F 95.1 °F 75.0 °F 70% 29.99 in 10.0 mi NNE 9.2 mph - N/A   Clear
6:53 PM 82.9 °F 89.4 °F 73.9 °F 74% 29.99 in 10.0 mi ENE 8.1 mph - N/A   Clear
8:53 PM 80.1 °F 84.2 °F 73.0 °F 79% 29.98 in 10.0 mi ESE 3.5 mph - N/A   Clear
9:53 PM 79.0 °F - 73.9 °F 84% 29.98 in 10.0 mi East 4.6 mph - N/A   Clear
10:53 PM 78.1 °F - 73.9 °F 87% 30.00 in 10.0 mi ESE 4.6 mph - N/A   Clear
11:53 PM 77.0 °F - 73.9 °F 90% 29.99 in 10.0 mi Calm Calm - N/A   Clear